SCP
0 0 0 0 -0 -0 -0 -0 -0 -0 -0 -0 -0 -0 -0 -0 -0 0 -0 0 0 -0 -0 -0 -0 -0 -0 -0 -0 -0 -0 -0 -0 -0 -0 -0 -0 -0 -0 -0 0 0 0
-0 0 0 -0 -0 -0 -0 -0 -0 -0 -0 -0 -0 -0 -0 -0 -0 -0 0 0 -0 -0 -0 -0 -0 -0 0 0 -0 -0 -0 0 0 0 0 -0 -0 -0 -0 -0 0 0 0
-0 0 0 0 -0 -0 -0 -0 -0 -0 -0 -0 -0 -0 -0 -0 -0 -0 0 0 -0 -0 -0 -0 -0 0 0 0 -0 -0 -0 0 0 0 -0 -0 -0 -0 0 0 0 0 0
-0 0 0 0 -0 -0 -0 -0 -0 -0 -0 -0 -0 -0 -0 -0 0 -0 0 0 0 0 -0 -0 -0 -0 0 0 -0 -0 -0 -0 0 -0 -0 -0 0 0 0 0 0 0 0
0 0 0 -0 -0 -0 -0 -0 -0 -0 -0 -0 -0 -0 -0 -0 -0 -0 -0 -0 0 -0 0 -0 0 0 0 0 -0 -0 -0 -0 -0 0 -0 -0 -0 0 0 0 0 0 0
-0 0 0 -0 -0 -0 -0 -0 -0 -0 -0 0 -0 -0 -0 -0 -0 -0 -0 -0 -0 0 0 0 0 0 0 -0 -0 -0 -0 -0 0 -0 -0 0 0 0 0 0 0 0 0
0 0 -0 -0 -0 -0 -0 -0 0 0 -0 -0 -0 -0 0 -0 -0 -0 -0 -0 -0 0 -0 0 0 0 0 -0 -0 -0 0 0 0 -0 0 0 0 0 0 0 0 0 0
-0 0 0 -0 -0 -0 -0 -0 0 0 0 -0 -0 -0 -0 0 -0 -0 -0 -0 -0 -0 0 0 0 0 0 0 -0 -0 -0 -0 0 0 0 0 0 0 0 0 0 0 0
-0 -0 0 0 -0 -0 -0 -0 -0 0 0 0 -0 -0 -0 -0 0 0 0 0 0 0 0 0 0 0 0 0 0 -0 -0 -0 0 0 0 0 0 0 0 0 0 0 0
-0 -0 -0 0 0 -0 -0 -0 -0 0 0 0 0 0 -0 -0 0 0 0 0 0 0 0 0 0 0 0 0 -0 -0 -0 -0 0 0 0 0 0 0 0 0 0 0 0
-0 -0 -0 -0 -0 0 0 0 0 0 0 0 0 0 0 0 0 0 0 0 0 0 0 0 0 0 0 0 -0 -0 -0 0 0 0 0 0 0 0 0 0 0 0 0
-0 -0 -0 -0 -0 -0 0 0 0 0 0 0 0 0 0 0 0 0 0 -0 0 0 0 0 0 0 0 0 0 -0 0 0 0 0 0 0 0 0 0 0 0 0 0
0 0 0 -0 -0 -0 0 0 0 0 0 0 0 0 0 0 0 0 0 0 0 0 0 0 0 0 0 0 0 0 0 0 0 0 0 0 0 0 0 0 0 0 0
0 0 0 0 0 0 0 0 0 0 0 0 0 0 0 0 0 0 0 0 0 0 0 0 0 0 0 0 0 0 0 0 0 0 0 0 0 0 0 0 0 0 0
0 0 0 0 0 0 0 0 0 0 0 0 0 0 0 0 0 0 0 0 0 0 0 0 0 0 0 0 0 0 0 0 0 0 0 0 0 0 0 0 0 0 0
0 0 0 0 0 0 0 0 0 0 0 0 0 0 0 0 0 0 0 0 0 0 0 0 0 0 0 0 0 0 0 0 0 0 0 0 0 0 0 0 0 0 0
0 0 0 0 0 0 0 0 0 0 0 0 0 0 0 0 0 0 0 0 0 0 0 0 0 0 0 0 0 0 0 0 0 0 0 0 0 0 0 0 0 0 0
0 0 0 0 0 0 0 0 0 0 0 0 0 0 0 0 0 0 0 0 0 0 0 0 0 0 0 0 0 0 0 0 0 0 0 0 0 0 0 0 0 0 0
0 0 0 0 0 0 0 0 0 0 0 0 0 0 0 0 0 0 0 0 0 0 0 0 0 0 0 0 0 0 0 0 0 0 0 0 0 0 0 0 0 0 0
0 0 0 0 0 0 0 0 0 0 0 0 0 0 0 0 0 0 0 0 0 0 0 0 0 0 0 0 0 0 0 0 0 0 0 0 0 0 0 0 0 0 0
0 0 0 0 0 0 0 0 0 0 0 0 0 0 0 0 0 0 0 0 0 0 0 0 0 0 0 0 0 0 0 0 0 0 0 0 0 0 0 0 0 0 0
0 0 0 0 0 0 0 0 0 0 0 0 0 0 0 0 0 0 0 0 0 0 0 0 0 0 0 0 0 0 0 0 0 0 0 0 0 0 0 0 0 0 0
0 0 0 0 0 0 0 0 0 0 0 0 0 0 0 0 0 0 0 0 0 0 0 0 0 0 0 0 0 0 0 0 0 0 0 0 0 0 0 0 0 0 0
0 0 0 0 0 0 0 0 0 0 0 0 0 0 0 0 0 0 0 0 0 0 0 0 0 0 0 0 0 0 0 0 0 0 0 0 0 0 0 0 0 0 0
0 0 0 0 0 0 0 0 0 0 0 0 0 0 0 0 0 0 0 0 0 0 0 0 0 0 0 0 0 0 0 0 0 0 0 0 0 0 0 0 0 0 0
0 0 0 0 0 0 0 0 0 0 0 0 0 0 0 0 0 0 0 0 0 0 0 0 0 0 0 0 0 0 0 0 0 0 0 0 0 0 0 0 0 0 0
Wind_Speed_500mb
31 29 27 27 25 26 25 24 23 21 22 23 25 25 29 26 17 12 10 14 25 27 28 28 27 30 33 39 38 37 34 33 28 25 25 27 27 26 22 19 18 20 23
39 33 29 26 25 25 24 23 22 21 19 17 16 17 21 18 12 8 20 27 27 27 26 28 29 34 40 39 36 31 27 25 22 22 24 17 20 19 17 16 16 18 21
39 34 31 26 24 22 20 20 22 22 20 13 13 13 17 17 14 17 25 24 26 23 27 29 34 36 38 37 33 27 27 25 21 21 23 20 17 22 21 19 17 18 21
37 33 30 27 24 21 19 18 18 21 21 19 13 11 18 21 21 19 26 26 24 23 23 27 32 32 32 33 30 25 22 22 22 22 25 23 24 23 22 20 21 20 21
38 33 30 27 24 21 19 16 19 21 20 19 21 17 20 21 20 13 18 20 28 21 15 24 25 27 28 25 25 21 16 13 13 16 15 16 19 21 21 21 20 20 21
40 33 27 25 23 21 20 17 16 17 16 19 16 13 16 24 23 21 16 13 17 18 18 20 22 22 21 20 18 15 12 11 14 13 13 16 14 17 19 21 20 19 19
42 36 29 26 22 22 20 17 15 12 15 16 15 12 14 17 14 17 16 11 13 12 14 17 17 16 17 16 13 11 11 7 10 11 13 14 14 15 17 18 18 17 16
40 37 31 27 23 22 21 20 17 13 15 14 10 13 14 14 14 16 16 15 13 12 12 15 15 15 12 12 10 7 5 4 5 8 10 11 13 14 15 15 15 15 15
32 35 34 30 26 21 19 18 19 16 14 13 8 9 15 13 13 12 11 12 13 9 11 12 12 12 11 9 7 6 3 2 3 7 5 7 9 11 13 13 13 12 12
27 31 36 32 28 24 21 19 17 16 15 14 11 9 11 12 9 9 11 11 10 8 9 11 12 10 9 7 6 5 5 7 7 9 9 7 9 11 13 13 12 11 11
32 27 34 36 31 26 23 22 21 19 19 17 15 12 10 12 12 9 11 10 8 5 5 6 8 9 9 9 10 11 11 12 12 13 14 13 12 13 13 15 14 13 12
41 37 33 38 36 33 30 28 25 24 23 22 21 18 16 16 17 17 15 13 11 10 10 9 9 10 12 13 14 15 15 16 16 15 16 17 16 17 16 17 17 17 16
37 32 30 34 36 35 33 30 29 28 25 24 24 22 21 21 20 21 20 17 15 15 15 15 15 14 16 18 18 19 19 19 19 17 19 21 21 21 20 21 21 22 22
40 32 29 32 33 34 34 34 30 29 27 27 25 25 26 24 23 22 21 20 21 23 22 21 20 19 19 18 19 20 21 23 23 23 24 26 27 27 25 26 27 27 27
41 34 32 34 36 34 33 33 34 32 31 27 28 26 26 26 25 24 23 22 22 24 25 25 24 24 24 23 22 23 24 25 26 28 29 30 31 32 31 31 32 33 32
40 36 33 33 36 38 38 36 34 33 32 34 36 32 30 29 28 29 27 25 25 26 26 27 27 27 29 29 28 27 26 27 29 31 32 33 34 35 35 35 35 36 37
40 35 38 34 33 38 40 40 40 39 37 34 33 32 34 33 33 32 33 33 30 29 29 30 29 31 33 32 33 31 32 34 36 35 34 35 35 35 36 36 37 39 40
38 38 36 37 37 37 37 37 39 41 42 40 39 39 37 33 32 33 35 35 33 35 34 34 32 34 35 36 36 36 37 38 37 38 37 36 35 36 36 37 39 40 41
43 40 40 40 40 37 35 35 36 35 39 43 42 42 43 42 41 40 41 39 36 39 41 39 39 40 39 38 39 39 39 42 42 42 41 38 39 39 40 39 40 41 41
52 49 45 43 39 37 34 34 35 38 39 39 41 42 38 45 50 52 49 49 44 46 46 45 44 42 44 42 44 48 46 47 48 49 46 41 39 36 37 35 32 31 27
64 59 54 50 44 41 44 43 45 45 41 41 39 38 38 39 39 45 50 52 50 57 54 49 48 47 47 43 48 52 54 50 51 49 46 42 38 32 27 24 28 35 30
71 68 60 56 50 50 50 48 48 45 47 43 41 41 40 41 42 46 49 48 48 54 57 57 54 53 53 46 46 47 52 56 44 18 31 27 25 29 33 36 41 34 33
59 60 57 58 58 55 50 50 50 52 55 53 50 47 47 46 43 46 46 50 52 53 53 55 56 56 55 52 48 44 20 22 46 49 37 41 41 40 42 45 42 41 42
52 52 48 53 57 54 55 57 58 59 64 62 55 45 43 40 38 37 42 48 49 50 51 51 53 54 52 55 55 57 59 62 62 51 61 59 59 53 45 43 44 44 47
60 55 56 61 63 66 67 67 63 60 64 59 52 46 41 40 40 40 38 47 47 49 48 48 52 52 53 55 61 57 61 61 64 68 54 62 62 59 58 52 52 48 43
56 54 54 55 60 63 61 59 61 61 59 61 55 53 51 50 51 47 41 45 42 43 49 47 48 50 48 52 49 52 58 58 62 61 62 62 58 58 60 48 51 45 46
Wind_Direction_500mb
169 157 154 143 139 137 137 133 127 124 126 122 123 136 127 133 121 100 56 71 93 98 90 94 90 99 103 102 104 101 96 91 83 73 68 75 78 75 79 79 65 50 32
159 158 157 149 141 142 146 152 148 134 124 128 130 131 148 154 138 94 83 89 102 94 96 93 96 104 109 110 110 105 99 89 80 69 72 66 66 62 57 49 38 31 26
162 159 159 153 147 144 145 148 160 160 152 143 134 149 142 138 116 90 117 99 102 91 101 99 100 105 112 114 112 106 86 79 82 65 57 60 72 61 57 49 40 36 38
168 161 160 157 152 148 147 153 160 170 172 174 167 146 140 146 126 130 115 114 104 106 103 102 107 114 116 118 119 111 100 90 82 70 58 47 42 49 48 46 45 45 46
173 166 162 158 155 151 148 147 143 150 163 172 181 182 144 148 156 135 123 131 116 107 101 111 109 111 120 121 125 128 126 113 80 63 40 31 34 46 44 43 44 45 46
174 168 162 159 155 152 152 149 137 142 159 164 176 178 147 150 159 151 143 145 123 124 121 114 114 113 117 121 118 113 111 98 87 74 39 36 31 43 39 38 38 42 44
173 170 165 163 160 158 159 156 149 147 153 154 154 154 145 145 151 145 149 153 145 128 117 118 118 119 122 121 125 116 105 79 58 59 49 42 34 26 34 33 33 37 39
179 173 172 171 170 166 166 162 162 163 160 159 169 168 164 160 160 159 167 168 166 163 150 146 148 140 138 140 135 127 114 89 41 44 58 40 32 22 20 23 25 29 33
184 183 181 182 180 180 178 174 173 172 172 175 186 187 180 179 180 173 182 181 181 186 183 175 172 161 158 158 160 163 197 246 352 2 19 27 20 10 5 7 10 12 21
189 201 187 190 192 194 189 186 187 186 188 199 211 213 184 178 192 205 205 204 196 212 206 203 202 195 193 196 210 222 240 267 291 310 324 342 347 347 342 342 346 350 354
210 224 201 198 199 202 204 199 195 199 202 206 215 225 216 192 199 207 212 220 227 225 247 244 243 235 233 232 239 248 255 264 273 287 301 313 322 319 321 319 321 323 323
208 215 218 202 205 208 211 211 205 206 210 214 216 221 228 224 220 225 221 222 232 241 248 254 253 246 249 250 253 261 266 270 278 276 289 300 302 301 303 304 302 302 300
213 216 215 210 205 211 215 215 214 213 215 218 223 224 228 234 236 235 231 230 237 249 260 263 262 262 259 259 261 265 268 272 278 282 285 291 290 293 294 296 294 290 289
212 219 224 221 216 218 215 216 221 223 224 226 228 229 232 237 241 238 240 241 248 255 260 261 261 264 260 265 264 268 272 277 280 282 282 285 285 285 285 286 288 284 281
217 219 228 229 230 228 232 227 225 226 229 230 232 231 232 236 245 247 247 252 258 261 261 261 262 264 263 264 265 270 273 279 284 287 287 285 283 283 282 279 279 280 278
218 220 225 226 228 233 237 240 238 236 234 234 235 236 240 242 246 254 260 264 265 267 266 265 267 267 267 267 268 271 276 281 282 281 281 280 279 280 280 278 276 275 275
218 217 221 227 227 231 237 241 243 242 242 244 246 241 239 242 243 249 255 257 262 265 266 267 269 273 276 279 281 282 284 285 284 283 282 283 282 282 281 280 277 275 274
226 227 229 232 234 235 239 243 247 246 246 247 248 251 251 252 254 256 256 259 261 263 268 271 276 278 279 280 284 283 283 283 285 286 284 284 284 283 281 281 280 277 274
229 233 237 238 242 242 247 249 250 248 251 255 253 249 253 254 256 257 258 260 263 263 264 267 270 274 277 279 284 283 281 282 284 283 284 286 285 284 282 280 277 276 278
236 240 239 239 241 244 251 255 251 247 251 254 255 253 254 251 252 255 260 261 262 264 263 264 267 271 275 279 280 280 280 281 284 284 287 286 287 283 282 285 284 287 287
235 238 236 234 237 238 239 245 248 249 254 259 257 254 253 255 261 256 261 261 259 258 264 268 269 269 270 275 283 284 287 289 290 290 288 287 281 282 285 296 308 305 301
235 232 231 235 240 244 244 249 254 260 263 266 264 260 256 258 258 256 264 264 263 264 264 263 263 265 268 269 268 280 292 300 307 308 307 295 292 293 291 296 296 294 292
226 232 236 239 242 246 255 247 248 253 257 258 257 255 255 258 257 254 258 262 267 266 269 268 263 263 267 272 268 258 265 274 294 303 304 289 291 287 285 293 291 290 288
231 234 237 236 235 235 236 241 251 256 256 261 269 272 269 263 260 264 264 261 263 266 267 272 267 264 265 266 272 271 269 270 271 288 290 293 290 296 303 301 300 296 294
241 239 236 234 232 234 235 239 249 259 261 257 257 264 262 257 256 249 251 253 259 262 270 270 268 265 265 266 265 271 273 279 277 272 272 285 289 295 298 300 296 294 297
231 234 234 235 234 234 237 243 249 257 257 252 251 248 246 244 244 243 246 257 258 264 267 267 265 268 268 268 271 272 273 272 273 274 276 280 286 291 289 299 291 294 302
Wind_Speed_850mb
31 29 27 27 25 26 25 24 23 21 22 23 25 25 29 26 17 12 10 14 25 27 28 28 27 30 33 39 38 37 34 33 28 25 25 27 27 26 22 19 18 20 23
39 33 29 26 25 25 24 23 22 21 19 17 16 17 21 18 12 8 20 27 27 27 26 28 29 34 40 39 36 31 27 25 22 22 24 17 20 19 17 16 16 18 21
39 34 31 26 24 22 20 20 22 22 20 13 13 13 17 17 14 17 25 24 26 23 27 29 34 36 38 37 33 27 27 25 21 21 23 20 17 22 21 19 17 18 21
37 33 30 27 24 21 19 18 18 21 21 19 13 11 18 21 21 19 26 26 24 23 23 27 32 32 32 33 30 25 22 22 22 22 25 23 24 23 22 20 21 20 21
38 33 30 27 24 21 19 16 19 21 20 19 21 17 20 21 20 13 18 20 28 21 15 24 25 27 28 25 25 21 16 13 13 16 15 16 19 21 21 21 20 20 21
40 33 27 25 23 21 20 17 16 17 16 19 16 13 16 24 23 21 16 13 17 18 18 20 22 22 21 20 18 15 12 11 14 13 13 16 14 17 19 21 20 19 19
42 36 29 26 22 22 20 17 15 12 15 16 15 12 14 17 14 17 16 11 13 12 14 17 17 16 17 16 13 11 11 7 10 11 13 14 14 15 17 18 18 17 16
40 37 31 27 23 22 21 20 17 13 15 14 10 13 14 14 14 16 16 15 13 12 12 15 15 15 12 12 10 7 5 4 5 8 10 11 13 14 15 15 15 15 15
32 35 34 30 26 21 19 18 19 16 14 13 8 9 15 13 13 12 11 12 13 9 11 12 12 12 11 9 7 6 3 2 3 7 5 7 9 11 13 13 13 12 12
27 31 36 32 28 24 21 19 17 16 15 14 11 9 11 12 9 9 11 11 10 8 9 11 12 10 9 7 6 5 5 7 7 9 9 7 9 11 13 13 12 11 11
32 27 34 36 31 26 23 22 21 19 19 17 15 12 10 12 12 9 11 10 8 5 5 6 8 9 9 9 10 11 11 12 12 13 14 13 12 13 13 15 14 13 12
41 37 33 38 36 33 30 28 25 24 23 22 21 18 16 16 17 17 15 13 11 10 10 9 9 10 12 13 14 15 15 16 16 15 16 17 16 17 16 17 17 17 16
37 32 30 34 36 35 33 30 29 28 25 24 24 22 21 21 20 21 20 17 15 15 15 15 15 14 16 18 18 19 19 19 19 17 19 21 21 21 20 21 21 22 22
40 32 29 32 33 34 34 34 30 29 27 27 25 25 26 24 23 22 21 20 21 23 22 21 20 19 19 18 19 20 21 23 23 23 24 26 27 27 25 26 27 27 27
41 34 32 34 36 34 33 33 34 32 31 27 28 26 26 26 25 24 23 22 22 24 25 25 24 24 24 23 22 23 24 25 26 28 29 30 31 32 31 31 32 33 32
40 36 33 33 36 38 38 36 34 33 32 34 36 32 30 29 28 29 27 25 25 26 26 27 27 27 29 29 28 27 26 27 29 31 32 33 34 35 35 35 35 36 37
40 35 38 34 33 38 40 40 40 39 37 34 33 32 34 33 33 32 33 33 30 29 29 30 29 31 33 32 33 31 32 34 36 35 34 35 35 35 36 36 37 39 40
38 38 36 37 37 37 37 37 39 41 42 40 39 39 37 33 32 33 35 35 33 35 34 34 32 34 35 36 36 36 37 38 37 38 37 36 35 36 36 37 39 40 41
43 40 40 40 40 37 35 35 36 35 39 43 42 42 43 42 41 40 41 39 36 39 41 39 39 40 39 38 39 39 39 42 42 42 41 38 39 39 40 39 40 41 41
52 49 45 43 39 37 34 34 35 38 39 39 41 42 38 45 50 52 49 49 44 46 46 45 44 42 44 42 44 48 46 47 48 49 46 41 39 36 37 35 32 31 27
64 59 54 50 44 41 44 43 45 45 41 41 39 38 38 39 39 45 50 52 50 57 54 49 48 47 47 43 48 52 54 50 51 49 46 42 38 32 27 24 28 35 30
71 68 60 56 50 50 50 48 48 45 47 43 41 41 40 41 42 46 49 48 48 54 57 57 54 53 53 46 46 47 52 56 44 18 31 27 25 29 33 36 41 34 33
59 60 57 58 58 55 50 50 50 52 55 53 50 47 47 46 43 46 46 50 52 53 53 55 56 56 55 52 48 44 20 22 46 49 37 41 41 40 42 45 42 41 42
52 52 48 53 57 54 55 57 58 59 64 62 55 45 43 40 38 37 42 48 49 50 51 51 53 54 52 55 55 57 59 62 62 51 61 59 59 53 45 43 44 44 47
60 55 56 61 63 66 67 67 63 60 64 59 52 46 41 40 40 40 38 47 47 49 48 48 52 52 53 55 61 57 61 61 64 68 54 62 62 59 58 52 52 48 43
56 54 54 55 60 63 61 59 61 61 59 61 55 53 51 50 51 47 41 45 42 43 49 47 48 50 48 52 49 52 58 58 62 61 62 62 58 58 60 48 51 45 46
Wind_Direction_850mb
169 157 154 143 139 137 137 133 127 124 126 122 123 136 127 133 121 100 56 71 93 98 90 94 90 99 103 102 104 101 96 91 83 73 68 75 78 75 79 79 65 50 32
159 158 157 149 141 142 146 152 148 134 124 128 130 131 148 154 138 94 83 89 102 94 96 93 96 104 109 110 110 105 99 89 80 69 72 66 66 62 57 49 38 31 26
162 159 159 153 147 144 145 148 160 160 152 143 134 149 142 138 116 90 117 99 102 91 101 99 100 105 112 114 112 106 86 79 82 65 57 60 72 61 57 49 40 36 38
168 161 160 157 152 148 147 153 160 170 172 174 167 146 140 146 126 130 115 114 104 106 103 102 107 114 116 118 119 111 100 90 82 70 58 47 42 49 48 46 45 45 46
173 166 162 158 155 151 148 147 143 150 163 172 181 182 144 148 156 135 123 131 116 107 101 111 109 111 120 121 125 128 126 113 80 63 40 31 34 46 44 43 44 45 46
174 168 162 159 155 152 152 149 137 142 159 164 176 178 147 150 159 151 143 145 123 124 121 114 114 113 117 121 118 113 111 98 87 74 39 36 31 43 39 38 38 42 44
173 170 165 163 160 158 159 156 149 147 153 154 154 154 145 145 151 145 149 153 145 128 117 118 118 119 122 121 125 116 105 79 58 59 49 42 34 26 34 33 33 37 39
179 173 172 171 170 166 166 162 162 163 160 159 169 168 164 160 160 159 167 168 166 163 150 146 148 140 138 140 135 127 114 89 41 44 58 40 32 22 20 23 25 29 33
184 183 181 182 180 180 178 174 173 172 172 175 186 187 180 179 180 173 182 181 181 186 183 175 172 161 158 158 160 163 197 246 352 2 19 27 20 10 5 7 10 12 21
189 201 187 190 192 194 189 186 187 186 188 199 211 213 184 178 192 205 205 204 196 212 206 203 202 195 193 196 210 222 240 267 291 310 324 342 347 347 342 342 346 350 354
210 224 201 198 199 202 204 199 195 199 202 206 215 225 216 192 199 207 212 220 227 225 247 244 243 235 233 232 239 248 255 264 273 287 301 313 322 319 321 319 321 323 323
208 215 218 202 205 208 211 211 205 206 210 214 216 221 228 224 220 225 221 222 232 241 248 254 253 246 249 250 253 261 266 270 278 276 289 300 302 301 303 304 302 302 300
213 216 215 210 205 211 215 215 214 213 215 218 223 224 228 234 236 235 231 230 237 249 260 263 262 262 259 259 261 265 268 272 278 282 285 291 290 293 294 296 294 290 289
212 219 224 221 216 218 215 216 221 223 224 226 228 229 232 237 241 238 240 241 248 255 260 261 261 264 260 265 264 268 272 277 280 282 282 285 285 285 285 286 288 284 281
217 219 228 229 230 228 232 227 225 226 229 230 232 231 232 236 245 247 247 252 258 261 261 261 262 264 263 264 265 270 273 279 284 287 287 285 283 283 282 279 279 280 278
218 220 225 226 228 233 237 240 238 236 234 234 235 236 240 242 246 254 260 264 265 267 266 265 267 267 267 267 268 271 276 281 282 281 281 280 279 280 280 278 276 275 275
218 217 221 227 227 231 237 241 243 242 242 244 246 241 239 242 243 249 255 257 262 265 266 267 269 273 276 279 281 282 284 285 284 283 282 283 282 282 281 280 277 275 274
226 227 229 232 234 235 239 243 247 246 246 247 248 251 251 252 254 256 256 259 261 263 268 271 276 278 279 280 284 283 283 283 285 286 284 284 284 283 281 281 280 277 274
229 233 237 238 242 242 247 249 250 248 251 255 253 249 253 254 256 257 258 260 263 263 264 267 270 274 277 279 284 283 281 282 284 283 284 286 285 284 282 280 277 276 278
236 240 239 239 241 244 251 255 251 247 251 254 255 253 254 251 252 255 260 261 262 264 263 264 267 271 275 279 280 280 280 281 284 284 287 286 287 283 282 285 284 287 287
235 238 236 234 237 238 239 245 248 249 254 259 257 254 253 255 261 256 261 261 259 258 264 268 269 269 270 275 283 284 287 289 290 290 288 287 281 282 285 296 308 305 301
235 232 231 235 240 244 244 249 254 260 263 266 264 260 256 258 258 256 264 264 263 264 264 263 263 265 268 269 268 280 292 300 307 308 307 295 292 293 291 296 296 294 292
226 232 236 239 242 246 255 247 248 253 257 258 257 255 255 258 257 254 258 262 267 266 269 268 263 263 267 272 268 258 265 274 294 303 304 289 291 287 285 293 291 290 288
231 234 237 236 235 235 236 241 251 256 256 261 269 272 269 263 260 264 264 261 263 266 267 272 267 264 265 266 272 271 269 270 271 288 290 293 290 296 303 301 300 296 294
241 239 236 234 232 234 235 239 249 259 261 257 257 264 262 257 256 249 251 253 259 262 270 270 268 265 265 266 265 271 273 279 277 272 272 285 289 295 298 300 296 294 297
231 234 234 235 234 234 237 243 249 257 257 252 251 248 246 244 244 243 246 257 258 264 267 267 265 268 268 268 271 272 273 272 273 274 276 280 286 291 289 299 291 294 302